Terug naar catalogus

COSMOS 1275 DEB

ActiefPO
NORAD 12952·DEBRIS·🇷🇺 Russia

Gelanceerd Jun 4, 1981 vanaf Plesetsk Cosmodrome

Loading…

Volgende Passages (komende 24 uur)

TLE

VersSource: Space-Track

Epoch: Sep 13, 2026, 12:10 UTC

1 12952U 81053EG  26256.50742050  .00000619  00000-0  41525-3 0  9996
2 12952  82.9563 265.2862 0007790 234.7259 277.4569 13.99329610275175

Volg COSMOS 1275 DEB in realtime met AllMySat

Download on the App Store